Time,TemperatureF,DewpointF,PressureIn,WindDirection,WindDirectionDegrees,WindSpeedMPH,WindSpeedGustMPH,Humidity,HourlyPrecipIn,Conditions,Clouds,dailyrainin,SoftwareType,DateUTC
2013-10-02 00:00:00,51.9,47.8,30.09,SW,222,2.0,10.0,86,0.00,,---,0.13,VWS V14.01,2013-10-02 07:00:00,
2013-10-02 00:05:00,51.9,47.8,30.09,WSW,250,1.0,4.0,86,0.00,,---,0.00,VWS V14.01,2013-10-02 07:05:00,
2013-10-02 00:10:00,51.9,47.8,30.09,WSW,250,2.0,4.0,86,0.00,,---,0.00,VWS V14.01,2013-10-02 07:10:00,
2013-10-02 00:15:00,51.9,47.8,30.09,SW,219,0.0,5.0,86,0.00,,---,0.00,VWS V14.01,2013-10-02 07:15:00,
2013-10-02 00:20:00,51.9,47.8,30.09,SSE,157,1.0,7.0,86,0.00,,---,0.00,VWS V14.01,2013-10-02 07:20:00,
2013-10-02 00:25:00,52.0,48.0,30.09,East,80,0.0,7.0,86,0.00,,---,0.00,VWS V14.01,2013-10-02 07:25:00,
2013-10-02 00:30:00,52.0,48.0,30.09,SSE,167,0.0,9.0,86,0.00,,---,0.00,VWS V14.01,2013-10-02 07:30:00,
2013-10-02 00:35:00,52.0,48.0,30.09,SSW,198,2.0,4.0,86,0.00,,---,0.00,VWS V14.01,2013-10-02 07:35:00,
2013-10-02 00:40:00,52.0,48.0,30.09,South,190,1.0,4.0,86,0.00,,---,0.00,VWS V14.01,2013-10-02 07:40:00,
2013-10-02 00:45:00,52.0,48.0,30.09,SSW,198,0.0,6.0,86,0.00,,---,0.00,VWS V14.01,2013-10-02 07:45:00,
2013-10-02 00:50:00,52.0,48.0,30.09,South,171,1.0,6.0,86,0.00,,---,0.00,VWS V14.01,2013-10-02 07:50:00,
2013-10-02 00:55:00,52.0,48.0,30.09,SSE,152,1.0,6.0,86,0.00,,---,0.00,VWS V14.01,2013-10-02 07:55:00,
2013-10-02 01:00:00,52.0,48.0,30.09,SE,144,0.0,0.0,86,0.00,,---,0.00,VWS V14.01,2013-10-02 08:00:00,
2013-10-02 01:05:00,52.0,48.0,30.09,West,269,1.0,4.0,86,0.00,,---,0.00,VWS V14.01,2013-10-02 08:05:00,
2013-10-02 01:10:00,52.1,48.0,30.09,SSE,157,0.0,14.0,86,0.00,,---,0.00,VWS V14.01,2013-10-02 08:10:00,
2013-10-02 01:15:00,52.2,48.2,30.09,West,281,0.0,14.0,86,0.00,,---,0.00,VWS V14.01,2013-10-02 08:15:00,
2013-10-02 01:21:00,52.1,48.0,30.10,SE,145,6.0,14.0,86,0.00,,---,0.00,VWS V14.01,2013-10-02 08:21:00,
2013-10-02 01:26:00,52.1,48.0,30.09,South,172,2.0,14.0,86,0.00,,---,0.00,VWS V14.01,2013-10-02 08:26:00,
2013-10-02 01:31:00,52.1,47.7,30.09,SSW,206,0.0,0.0,85,0.00,,---,0.00,VWS V14.01,2013-10-02 08:31:00,
2013-10-02 01:36:00,52.0,48.0,30.09,SE,126,0.0,6.0,86,0.00,,---,0.00,VWS V14.01,2013-10-02 08:36:00,
2013-10-02 01:41:00,52.0,48.0,30.09,SW,228,0.0,10.0,86,0.00,,---,0.00,VWS V14.01,2013-10-02 08:41:00,
2013-10-02 01:46:00,51.9,47.8,30.10,SSE,158,2.0,10.0,86,0.00,,---,0.00,VWS V14.01,2013-10-02 08:46:00,
2013-10-02 01:51:00,51.8,47.8,30.09,SE,138,0.0,10.0,86,0.00,,---,0.00,VWS V14.01,2013-10-02 08:51:00,
2013-10-02 01:56:00,51.8,47.8,30.10,SE,146,0.0,10.0,86,0.00,,---,0.00,VWS V14.01,2013-10-02 08:56:00,
2013-10-02 02:01:00,51.7,47.7,30.10,ESE,114,2.0,4.0,86,0.00,,---,0.00,VWS V14.01,2013-10-02 09:01:00,
2013-10-02 02:06:00,51.6,47.6,30.10,SSE,156,0.0,4.0,86,0.00,,---,0.00,VWS V14.01,2013-10-02 09:06:00,
2013-10-02 02:11:00,51.5,47.8,30.10,SE,142,2.0,4.0,87,0.00,,---,0.00,VWS V14.01,2013-10-02 09:11:00,
2013-10-02 02:16:00,51.5,47.8,30.10,SSE,153,0.0,5.0,87,0.00,,---,0.00,VWS V14.01,2013-10-02 09:16:00,
2013-10-02 02:21:00,51.4,47.4,30.10,SE,144,2.0,6.0,86,0.00,,---,0.00,VWS V14.01,2013-10-02 09:21:00,
2013-10-02 02:26:00,51.4,47.4,30.10,SE,145,4.0,9.0,86,0.00,,---,0.00,VWS V14.01,2013-10-02 09:26:00,
2013-10-02 02:31:00,51.5,47.5,30.10,South,173,0.0,7.0,86,0.00,,---,0.00,VWS V14.01,2013-10-02 09:31:00,
2013-10-02 02:36:00,51.5,47.5,30.10,ESE,120,1.0,7.0,86,0.00,,---,0.00,VWS V14.01,2013-10-02 09:36:00,
2013-10-02 02:41:00,51.5,47.5,30.10,SSE,167,0.0,9.0,86,0.00,,---,0.00,VWS V14.01,2013-10-02 09:41:00,
2013-10-02 02:46:00,51.5,47.5,30.09,SSE,160,4.0,9.0,86,0.00,,---,0.00,VWS V14.01,2013-10-02 09:46:00,
2013-10-02 02:51:00,51.6,47.6,30.09,SSE,168,0.0,10.0,86,0.00,,---,0.00,VWS V14.01,2013-10-02 09:51:00,
2013-10-02 02:56:00,51.7,47.7,30.09,South,178,2.0,10.0,86,0.00,,---,0.00,VWS V14.01,2013-10-02 09:56:00,
2013-10-02 03:01:00,51.6,47.6,30.09,SSE,155,0.0,7.0,86,0.00,,---,0.00,VWS V14.01,2013-10-02 10:01:00,
2013-10-02 03:06:00,51.6,47.6,30.09,SE,136,2.0,11.0,86,0.00,,---,0.00,VWS V14.01,2013-10-02 10:06:00,
2013-10-02 03:11:00,51.6,47.6,30.09,SSE,165,3.0,11.0,86,0.00,,---,0.00,VWS V14.01,2013-10-02 10:11:00,
2013-10-02 03:16:00,51.6,47.6,30.09,SE,125,1.0,11.0,86,0.00,,---,0.00,VWS V14.01,2013-10-02 10:16:00,
2013-10-02 03:21:00,51.6,47.6,30.09,SSE,148,0.0,11.0,86,0.00,,---,0.00,VWS V14.01,2013-10-02 10:21:00,
2013-10-02 03:26:00,51.6,47.6,30.09,SSE,156,0.0,11.0,86,0.00,,---,0.00,VWS V14.01,2013-10-02 10:26:00,
2013-10-02 03:31:00,51.6,47.6,30.09,SSE,150,0.0,0.0,86,0.00,,---,0.00,VWS V14.01,2013-10-02 10:31:00,
2013-10-02 03:36:00,51.5,47.5,30.09,South,184,0.0,3.0,86,0.00,,---,0.00,VWS V14.01,2013-10-02 10:36:00,
2013-10-02 03:41:00,51.5,47.5,30.09,SE,146,2.0,8.0,86,0.00,,---,0.00,VWS V14.01,2013-10-02 10:41:00,
2013-10-02 03:46:00,51.5,47.5,30.09,South,169,0.0,9.0,86,0.00,,---,0.00,VWS V14.01,2013-10-02 10:46:00,
2013-10-02 03:51:00,51.5,47.5,30.09,SSE,158,0.0,9.0,86,0.00,,---,0.00,VWS V14.01,2013-10-02 10:51:00,
2013-10-02 03:56:00,51.5,47.5,30.09,ESE,117,1.0,9.0,86,0.00,,---,0.00,VWS V14.01,2013-10-02 10:56:00,
2013-10-02 04:01:00,51.5,47.5,30.09,SE,145,0.0,7.0,86,0.00,,---,0.00,VWS V14.01,2013-10-02 11:01:00,
2013-10-02 04:06:00,51.5,47.5,30.09,South,179,0.0,10.0,86,0.00,,---,0.00,VWS V14.01,2013-10-02 11:06:00,
2013-10-02 04:11:00,51.4,47.4,30.09,South,182,0.0,10.0,86,0.00,,---,0.00,VWS V14.01,2013-10-02 11:11:00,
2013-10-02 04:16:00,51.4,47.4,30.09,SSE,157,0.0,10.0,86,0.00,,---,0.00,VWS V14.01,2013-10-02 11:16:00,
2013-10-02 04:21:00,51.3,47.3,30.09,SSE,155,0.0,11.0,86,0.00,,---,0.00,VWS V14.01,2013-10-02 11:21:00,
2013-10-02 04:27:00,51.3,47.3,30.08,South,176,3.0,11.0,86,0.00,,---,0.00,VWS V14.01,2013-10-02 11:27:00,
2013-10-02 04:32:00,51.3,47.3,30.08,ESE,107,2.0,3.0,86,0.00,,---,0.00,VWS V14.01,2013-10-02 11:32:00,
2013-10-02 04:37:00,51.3,47.3,30.08,ESE,122,0.0,12.0,86,0.00,,---,0.00,VWS V14.01,2013-10-02 11:37:00,
2013-10-02 04:42:00,51.2,47.2,30.08,South,188,0.0,12.0,86,0.00,,---,0.00,VWS V14.01,2013-10-02 11:42:00,
2013-10-02 04:47:00,51.2,47.5,30.09,South,188,0.0,12.0,87,0.00,,---,0.00,VWS V14.01,2013-10-02 11:47:00,
2013-10-02 04:52:00,51.2,47.5,30.08,South,188,0.0,12.0,87,0.00,,---,0.00,VWS V14.01,2013-10-02 11:52:00,
2013-10-02 04:57:00,51.1,47.7,30.09,SSE,152,0.0,12.0,88,0.01,,---,0.01,VWS V14.01,2013-10-02 11:57:00,
2013-10-02 05:02:00,51.0,47.6,30.09,SSE,152,0.0,0.0,88,0.01,,---,0.01,VWS V14.01,2013-10-02 12:02:00,
2013-10-02 05:07:00,50.8,47.7,30.09,SE,139,0.0,2.0,89,0.01,,---,0.01,VWS V14.01,2013-10-02 12:07:00,
2013-10-02 05:12:00,50.6,47.5,30.08,South,175,2.0,5.0,89,0.01,,---,0.01,VWS V14.01,2013-10-02 12:12:00,
2013-10-02 05:17:00,50.6,47.5,30.08,SE,140,0.0,6.0,89,0.01,,---,0.01,VWS V14.01,2013-10-02 12:17:00,
2013-10-02 05:22:00,50.5,47.4,30.08,SSE,157,0.0,6.0,89,0.02,,---,0.02,VWS V14.01,2013-10-02 12:22:00,
2013-10-02 05:27:00,50.5,47.7,30.08,SSE,158,0.0,6.0,90,0.02,,---,0.02,VWS V14.01,2013-10-02 12:27:00,
2013-10-02 05:32:00,50.4,47.6,30.08,SSE,148,0.0,3.0,90,0.02,,---,0.02,VWS V14.01,2013-10-02 12:32:00,
2013-10-02 05:37:00,50.3,47.5,30.08,ESE,119,0.0,4.0,90,0.02,,---,0.02,VWS V14.01,2013-10-02 12:37:00,
2013-10-02 05:42:00,50.2,47.4,30.08,SSE,148,3.0,5.0,90,0.02,,---,0.02,VWS V14.01,2013-10-02 12:42:00,
2013-10-02 05:47:00,50.1,47.3,30.08,ESE,106,1.0,5.0,90,0.02,,---,0.02,VWS V14.01,2013-10-02 12:47:00,
2013-10-02 05:52:00,50.1,47.6,30.08,SE,142,1.0,5.0,91,0.02,,---,0.02,VWS V14.01,2013-10-02 12:52:00,
2013-10-02 05:57:00,50.0,47.5,30.08,SE,141,0.0,5.0,91,0.03,,---,0.03,VWS V14.01,2013-10-02 12:57:00,
2013-10-02 06:02:00,50.0,47.5,30.08,SE,141,0.0,1.0,91,0.02,,---,0.03,VWS V14.01,2013-10-02 13:02:00,
2013-10-02 06:07:00,49.9,47.7,30.08,SE,141,0.0,1.0,92,0.02,,---,0.03,VWS V14.01,2013-10-02 13:07:00,
2013-10-02 06:12:00,49.9,47.7,30.08,SE,141,0.0,3.0,92,0.03,,---,0.04,VWS V14.01,2013-10-02 13:12:00,
2013-10-02 06:17:00,49.8,47.6,30.08,SSE,159,0.0,4.0,92,0.03,,---,0.04,VWS V14.01,2013-10-02 13:17:00,
2013-10-02 06:22:00,49.8,47.9,30.08,SSE,163,0.0,6.0,93,0.04,,---,0.05,VWS V14.01,2013-10-02 13:22:00,
2013-10-02 06:27:00,49.7,47.8,30.08,SSE,154,0.0,6.0,93,0.04,,---,0.05,VWS V14.01,2013-10-02 13:27:00,
2013-10-02 06:32:00,49.7,47.8,30.08,SSE,155,0.0,0.0,93,0.03,,---,0.05,VWS V14.01,2013-10-02 13:32:00,
2013-10-02 06:37:00,49.7,47.8,30.08,SE,146,3.0,3.0,93,0.03,,---,0.05,VWS V14.01,2013-10-02 13:37:00,
2013-10-02 06:42:00,49.6,47.7,30.08,South,169,2.0,5.0,93,0.03,,---,0.05,VWS V14.01,2013-10-02 13:42:00,
2013-10-02 06:47:00,49.5,47.6,30.08,SSW,200,0.0,5.0,93,0.03,,---,0.05,VWS V14.01,2013-10-02 13:47:00,
2013-10-02 06:52:00,49.4,47.5,30.08,South,179,0.0,5.0,93,0.03,,---,0.05,VWS V14.01,2013-10-02 13:52:00,
2013-10-02 06:57:00,49.3,47.4,30.08,SSE,157,0.0,5.0,93,0.03,,---,0.05,VWS V14.01,2013-10-02 13:57:00,
2013-10-02 07:02:00,49.3,47.4,30.08,SSE,159,1.0,2.0,93,0.02,,---,0.05,VWS V14.01,2013-10-02 14:02:00,
2013-10-02 07:07:00,49.2,47.3,30.08,SSE,147,0.0,6.0,93,0.03,,---,0.06,VWS V14.01,2013-10-02 14:07:00,
2013-10-02 07:12:00,49.2,47.0,30.07,East,80,0.0,6.0,92,0.03,,---,0.06,VWS V14.01,2013-10-02 14:12:00,
2013-10-02 07:18:00,49.2,47.0,30.07,SSE,167,0.0,6.0,92,0.03,,---,0.06,VWS V14.01,2013-10-02 14:18:00,
2013-10-02 07:23:00,49.2,47.0,30.07,SSE,160,0.0,6.0,92,0.03,,---,0.06,VWS V14.01,2013-10-02 14:23:00,
2013-10-02 07:28:00,49.2,47.0,30.07,South,186,0.0,6.0,92,0.03,,---,0.06,VWS V14.01,2013-10-02 14:28:00,
2013-10-02 07:33:00,49.2,46.7,30.07,SSE,159,0.0,2.0,91,0.01,,---,0.06,VWS V14.01,2013-10-02 14:33:00,
2013-10-02 07:38:00,49.2,46.7,30.07,SSE,159,0.0,2.0,91,0.01,,---,0.06,VWS V14.01,2013-10-02 14:38:00,
2013-10-02 07:43:00,49.2,47.0,30.07,SSE,159,0.0,2.0,92,0.01,,---,0.06,VWS V14.01,2013-10-02 14:43:00,
2013-10-02 07:48:00,49.2,47.0,30.08,SSE,159,0.0,2.0,92,0.01,,---,0.06,VWS V14.01,2013-10-02 14:48:00,
2013-10-02 07:53:00,49.2,47.3,30.07,SSE,160,0.0,2.0,93,0.02,,---,0.07,VWS V14.01,2013-10-02 14:53:00,
2013-10-02 07:58:00,49.2,47.3,30.07,SSE,161,1.0,2.0,93,0.02,,---,0.07,VWS V14.01,2013-10-02 14:58:00,
2013-10-02 08:03:00,49.2,47.3,30.07,SSE,161,0.0,2.0,93,0.02,,---,0.07,VWS V14.01,2013-10-02 15:03:00,
2013-10-02 08:08:00,49.2,47.3,30.07,SSE,158,0.0,5.0,93,0.02,,---,0.07,VWS V14.01,2013-10-02 15:08:00,
2013-10-02 08:13:00,49.2,47.3,30.08,SSE,149,1.0,5.0,93,0.02,,---,0.07,VWS V14.01,2013-10-02 15:13:00,
2013-10-02 08:18:00,49.3,47.4,30.07,SSE,158,0.0,5.0,93,0.03,,---,0.08,VWS V14.01,2013-10-02 15:18:00,
2013-10-02 08:23:00,49.3,47.4,30.07,SSE,161,0.0,5.0,93,0.03,,---,0.08,VWS V14.01,2013-10-02 15:23:00,
2013-10-02 08:28:00,49.3,47.4,30.08,SSE,161,0.0,5.0,93,0.03,,---,0.08,VWS V14.01,2013-10-02 15:28:00,
2013-10-02 08:33:00,49.2,47.3,30.08,SSW,203,0.0,1.0,93,0.02,,---,0.08,VWS V14.01,2013-10-02 15:33:00,
2013-10-02 08:38:00,49.3,47.4,30.08,SSE,155,0.0,4.0,93,0.03,,---,0.09,VWS V14.01,2013-10-02 15:38:00,
2013-10-02 08:43:00,49.3,47.4,30.08,SSE,157,1.0,4.0,93,0.03,,---,0.09,VWS V14.01,2013-10-02 15:43:00,
2013-10-02 08:48:00,49.2,47.3,30.08,SSE,154,0.0,4.0,93,0.03,,---,0.09,VWS V14.01,2013-10-02 15:48:00,
2013-10-02 08:53:00,49.3,47.4,30.08,SSE,153,0.0,4.0,93,0.04,,---,0.10,VWS V14.01,2013-10-02 15:53:00,
2013-10-02 08:58:00,49.3,47.4,30.08,SE,144,0.0,4.0,93,0.04,,---,0.10,VWS V14.01,2013-10-02 15:58:00,
2013-10-02 09:03:00,49.3,47.4,30.08,SE,144,0.0,2.0,93,0.03,,---,0.10,VWS V14.01,2013-10-02 16:03:00,
2013-10-02 09:08:00,49.3,47.4,30.08,SSE,153,0.0,3.0,93,0.04,,---,0.11,VWS V14.01,2013-10-02 16:08:00,
2013-10-02 09:13:00,49.3,47.4,30.08,SSE,150,0.0,3.0,93,0.04,,---,0.11,VWS V14.01,2013-10-02 16:13:00,
2013-10-02 09:19:00,49.4,47.8,30.08,South,191,0.0,3.0,94,0.04,,---,0.11,VWS V14.01,2013-10-02 16:19:00,
2013-10-02 09:24:00,49.4,47.8,30.08,SSE,150,1.0,4.0,94,0.04,,---,0.11,VWS V14.01,2013-10-02 16:24:00,
2013-10-02 09:29:00,49.4,47.5,30.08,SSE,150,0.0,4.0,93,0.05,,---,0.12,VWS V14.01,2013-10-02 16:29:00,
2013-10-02 09:34:00,49.4,47.8,30.08,SE,138,1.0,1.0,94,0.04,,---,0.12,VWS V14.01,2013-10-02 16:34:00,
2013-10-02 09:39:00,49.4,47.8,30.08,SE,138,1.0,2.0,94,0.04,,---,0.12,VWS V14.01,2013-10-02 16:39:00,
2013-10-02 09:44:00,49.4,47.8,30.08,SE,143,1.0,2.0,94,0.05,,---,0.13,VWS V14.01,2013-10-02 16:44:00,
2013-10-02 09:49:00,49.4,47.8,30.08,SSE,148,0.0,3.0,94,0.05,,---,0.13,VWS V14.01,2013-10-02 16:49:00,
2013-10-02 09:54:00,49.5,47.8,30.08,SSE,147,1.0,3.0,94,0.05,,---,0.13,VWS V14.01,2013-10-02 16:54:00,
2013-10-02 09:59:00,49.4,47.8,30.08,SSE,153,2.0,3.0,94,0.05,,---,0.13,VWS V14.01,2013-10-02 16:59:00,
2013-10-02 10:04:00,49.4,47.8,30.08,SE,140,0.0,3.0,94,0.04,,---,0.14,VWS V14.01,2013-10-02 17:04:00,
2013-10-02 10:09:00,49.4,47.8,30.08,SSE,157,0.0,5.0,94,0.04,,---,0.14,VWS V14.01,2013-10-02 17:09:00,
2013-10-02 10:14:00,49.5,47.8,30.08,SE,146,0.0,5.0,94,0.04,,---,0.14,VWS V14.01,2013-10-02 17:14:00,
2013-10-02 10:19:00,49.5,47.8,30.08,SSW,192,0.0,5.0,94,0.05,,---,0.15,VWS V14.01,2013-10-02 17:19:00,
2013-10-02 10:24:00,49.7,48.0,30.08,SSE,168,0.0,5.0,94,0.05,,---,0.15,VWS V14.01,2013-10-02 17:24:00,
2013-10-02 10:29:00,49.7,48.0,30.08,SSW,199,1.0,5.0,94,0.05,,---,0.15,VWS V14.01,2013-10-02 17:29:00,
2013-10-02 10:34:00,49.6,48.0,30.08,SSE,159,0.0,4.0,94,0.03,,---,0.15,VWS V14.01,2013-10-02 17:34:00,
2013-10-02 10:39:00,49.7,48.0,30.08,SE,146,0.0,4.0,94,0.03,,---,0.15,VWS V14.01,2013-10-02 17:39:00,
2013-10-02 10:44:00,49.7,48.0,30.08,SE,134,0.0,6.0,94,0.03,,---,0.15,VWS V14.01,2013-10-02 17:44:00,
2013-10-02 10:49:00,49.7,48.0,30.08,SE,145,0.0,6.0,94,0.04,,---,0.16,VWS V14.01,2013-10-02 17:49:00,
2013-10-02 10:54:00,49.8,48.2,30.08,SSE,148,3.0,6.0,94,0.04,,---,0.16,VWS V14.01,2013-10-02 17:54:00,
2013-10-02 10:59:00,49.7,48.0,30.08,SE,139,0.0,6.0,94,0.04,,---,0.16,VWS V14.01,2013-10-02 17:59:00,
2013-10-02 11:04:00,49.8,48.2,30.08,WSW,251,0.0,4.0,94,0.02,,---,0.16,VWS V14.01,2013-10-02 18:04:00,
2013-10-02 11:09:00,50.0,48.3,30.08,WSW,250,0.0,4.0,94,0.02,,---,0.16,VWS V14.01,2013-10-02 18:09:00,
2013-10-02 11:14:00,50.1,48.4,30.08,SW,220,0.0,4.0,94,0.03,,---,0.17,VWS V14.01,2013-10-02 18:14:00,
2013-10-02 11:19:00,50.1,48.4,30.08,SW,221,0.0,4.0,94,0.03,,---,0.17,VWS V14.01,2013-10-02 18:19:00,
2013-10-02 11:24:00,50.1,48.4,30.08,SW,219,0.0,4.0,94,0.04,,---,0.18,VWS V14.01,2013-10-02 18:24:00,
2013-10-02 11:29:00,50.2,48.5,30.07,SW,215,1.0,4.0,94,0.05,,---,0.19,VWS V14.01,2013-10-02 18:29:00,
2013-10-02 11:34:00,50.3,48.6,30.07,SSE,167,0.0,2.0,94,0.04,,---,0.19,VWS V14.01,2013-10-02 18:34:00,
2013-10-02 11:39:00,50.3,48.6,30.08,SSW,203,0.0,7.0,94,0.04,,---,0.19,VWS V14.01,2013-10-02 18:39:00,
2013-10-02 11:44:00,50.4,48.7,30.07,South,182,0.0,7.0,94,0.04,,---,0.19,VWS V14.01,2013-10-02 18:44:00,
2013-10-02 11:49:00,50.4,48.7,30.07,South,183,0.0,7.0,94,0.04,,---,0.19,VWS V14.01,2013-10-02 18:49:00,
2013-10-02 11:54:00,50.5,48.8,30.07,SSE,150,0.0,7.0,94,0.04,,---,0.19,VWS V14.01,2013-10-02 18:54:00,
2013-10-02 11:59:00,50.4,48.7,30.07,SSE,157,0.0,7.0,94,0.04,,---,0.19,VWS V14.01,2013-10-02 18:59:00,
2013-10-02 12:04:00,50.5,48.8,30.07,SSE,156,0.0,1.0,94,0.03,,---,0.19,VWS V14.01,2013-10-02 19:04:00,
2013-10-02 12:09:00,50.5,48.8,30.07,SSE,161,0.0,4.0,94,0.03,,---,0.19,VWS V14.01,2013-10-02 19:09:00,
2013-10-02 12:15:00,50.4,48.7,30.07,West,267,1.0,4.0,94,0.04,,---,0.20,VWS V14.01,2013-10-02 19:15:00,
2013-10-02 12:20:00,50.5,48.8,30.07,SW,227,0.0,4.0,94,0.04,,---,0.20,VWS V14.01,2013-10-02 19:20:00,
2013-10-02 12:25:00,50.6,48.7,30.07,ESE,115,0.0,4.0,93,0.04,,---,0.20,VWS V14.01,2013-10-02 19:25:00,
2013-10-02 12:30:00,50.6,48.7,30.07,SSE,159,3.0,4.0,93,0.04,,---,0.20,VWS V14.01,2013-10-02 19:30:00,
2013-10-02 12:35:00,50.6,48.7,30.07,South,178,3.0,4.0,93,0.01,,---,0.20,VWS V14.01,2013-10-02 19:35:00,
2013-10-02 12:40:00,50.5,48.6,30.07,WSW,242,0.0,4.0,93,0.01,,---,0.20,VWS V14.01,2013-10-02 19:40:00,
2013-10-02 12:45:00,50.5,48.6,30.07,ESE,107,0.0,4.0,93,0.02,,---,0.21,VWS V14.01,2013-10-02 19:45:00,
2013-10-02 12:50:00,50.5,48.6,30.07,SE,125,0.0,4.0,93,0.02,,---,0.21,VWS V14.01,2013-10-02 19:50:00,
2013-10-02 12:55:00,50.5,48.6,30.07,SSE,164,0.0,4.0,93,0.02,,---,0.21,VWS V14.01,2013-10-02 19:55:00,
2013-10-02 13:00:00,50.2,48.0,30.07,West,273,0.0,5.0,92,0.03,,---,0.22,VWS V14.01,2013-10-02 20:00:00,
2013-10-02 13:05:00,50.1,47.9,30.07,SE,145,0.0,4.0,92,0.03,,---,0.22,VWS V14.01,2013-10-02 20:05:00,
2013-10-02 13:10:00,49.9,48.0,30.07,SSE,155,0.0,5.0,93,0.04,,---,0.23,VWS V14.01,2013-10-02 20:10:00,
2013-10-02 13:15:00,49.9,48.0,30.07,SE,142,0.0,5.0,93,0.04,,---,0.23,VWS V14.01,2013-10-02 20:15:00,
2013-10-02 13:20:00,50.0,48.1,30.07,SSW,212,2.0,5.0,93,0.04,,---,0.23,VWS V14.01,2013-10-02 20:20:00,
2013-10-02 13:25:00,50.0,48.1,30.07,SSE,160,0.0,5.0,93,0.05,,---,0.24,VWS V14.01,2013-10-02 20:25:00,
2013-10-02 13:30:00,50.1,48.2,30.07,SSE,164,0.0,5.0,93,0.05,,---,0.24,VWS V14.01,2013-10-02 20:30:00,
2013-10-02 13:35:00,50.0,48.1,30.07,SSE,148,1.0,4.0,93,0.04,,---,0.24,VWS V14.01,2013-10-02 20:35:00,
2013-10-02 13:40:00,49.9,48.0,30.07,SSE,155,0.0,6.0,93,0.05,,---,0.25,VWS V14.01,2013-10-02 20:40:00,
2013-10-02 13:45:00,50.0,48.1,30.06,SSE,155,0.0,6.0,93,0.05,,---,0.25,VWS V14.01,2013-10-02 20:45:00,
2013-10-02 13:50:00,50.1,48.2,30.06,SSE,155,0.0,6.0,93,0.05,,---,0.25,VWS V14.01,2013-10-02 20:50:00,
2013-10-02 13:55:00,50.2,48.3,30.06,SSE,155,0.0,6.0,93,0.05,,---,0.25,VWS V14.01,2013-10-02 20:55:00,
2013-10-02 14:00:00,50.3,48.4,30.06,SSE,155,0.0,6.0,93,0.05,,---,0.25,VWS V14.01,2013-10-02 21:00:00,
2013-10-02 14:05:00,50.5,48.3,30.06,SW,230,0.0,2.0,92,0.03,,---,0.25,VWS V14.01,2013-10-02 21:05:00,
2013-10-02 14:10:00,50.7,48.2,30.05,ESE,111,4.0,4.0,91,0.03,,---,0.25,VWS V14.01,2013-10-02 21:10:00,
2013-10-02 14:15:00,50.7,47.9,30.05,ESE,115,3.0,5.0,90,0.03,,---,0.25,VWS V14.01,2013-10-02 21:15:00,
2013-10-02 14:20:00,51.0,48.2,30.05,SSE,164,0.0,5.0,90,0.03,,---,0.25,VWS V14.01,2013-10-02 21:20:00,
2013-10-02 14:25:00,51.3,48.2,30.05,SSE,159,2.0,5.0,89,0.03,,---,0.25,VWS V14.01,2013-10-02 21:25:00,
2013-10-02 14:30:00,51.6,48.8,30.05,SSE,168,1.0,5.0,90,0.03,,---,0.25,VWS V14.01,2013-10-02 21:30:00,
2013-10-02 14:35:00,52.1,49.0,30.05,SSE,160,0.0,6.0,89,0.01,,---,0.25,VWS V14.01,2013-10-02 21:35:00,
2013-10-02 14:40:00,52.4,49.3,30.05,SSE,160,0.0,6.0,89,0.01,,---,0.25,VWS V14.01,2013-10-02 21:40:00,
2013-10-02 14:45:00,52.8,49.3,30.05,South,171,1.0,6.0,88,0.01,,---,0.25,VWS V14.01,2013-10-02 21:45:00,
2013-10-02 14:50:00,53.0,48.9,30.05,ESE,107,0.0,6.0,86,0.01,,---,0.25,VWS V14.01,2013-10-02 21:50:00,
2013-10-02 14:55:00,52.8,48.4,30.05,SE,136,0.0,6.0,85,0.01,,---,0.25,VWS V14.01,2013-10-02 21:55:00,
2013-10-02 15:00:00,52.9,48.8,30.05,ESE,102,1.0,2.0,86,0.00,,---,0.25,VWS V14.01,2013-10-02 22:00:00,
2013-10-02 15:05:00,52.8,48.4,30.05,South,191,2.0,5.0,85,0.00,,---,0.25,VWS V14.01,2013-10-02 22:05:00,
2013-10-02 15:10:00,52.9,48.5,30.05,SSE,168,0.0,5.0,85,0.00,,---,0.25,VWS V14.01,2013-10-02 22:10:00,
2013-10-02 15:15:00,53.0,48.3,30.05,SW,218,0.0,5.0,84,0.00,,---,0.25,VWS V14.01,2013-10-02 22:15:00,
2013-10-02 15:21:00,53.0,48.6,30.05,SE,136,0.0,8.0,85,0.00,,---,0.25,VWS V14.01,2013-10-02 22:21:00,
2013-10-02 15:26:00,53.1,48.7,30.05,SW,225,5.0,8.0,85,0.00,,---,0.25,VWS V14.01,2013-10-02 22:26:00,
2013-10-02 15:31:00,53.3,48.6,30.05,SSE,161,0.0,0.0,84,0.00,,---,0.25,VWS V14.01,2013-10-02 22:31:00,
2013-10-02 15:36:00,53.8,49.7,30.05,South,178,0.0,5.0,86,0.00,,---,0.25,VWS V14.01,2013-10-02 22:36:00,
2013-10-02 15:41:00,54.4,49.7,30.05,South,183,0.0,5.0,84,0.00,,---,0.25,VWS V14.01,2013-10-02 22:41:00,
2013-10-02 15:46:00,55.3,49.6,30.05,SW,232,5.0,10.0,81,0.00,,---,0.25,VWS V14.01,2013-10-02 22:46:00,
2013-10-02 15:51:00,55.7,49.0,30.05,SW,229,2.0,10.0,78,0.00,,---,0.25,VWS V14.01,2013-10-02 22:51:00,
2013-10-02 15:56:00,55.6,48.9,30.05,SW,223,0.0,10.0,78,0.00,,---,0.25,VWS V14.01,2013-10-02 22:56:00,
2013-10-02 16:01:00,55.3,48.6,30.05,SSE,152,0.0,0.0,78,0.00,,---,0.25,VWS V14.01,2013-10-02 23:01:00,
2013-10-02 16:06:00,55.5,49.4,30.05,SW,225,6.0,7.0,80,0.00,,---,0.25,VWS V14.01,2013-10-02 23:06:00,
2013-10-02 16:11:00,55.7,49.0,30.05,ESE,113,0.0,7.0,78,0.00,,---,0.25,VWS V14.01,2013-10-02 23:11:00,
2013-10-02 16:16:00,55.3,48.9,30.05,WSW,240,0.0,7.0,79,0.00,,---,0.25,VWS V14.01,2013-10-02 23:16:00,
2013-10-02 16:21:00,55.2,49.2,30.05,SW,227,0.0,7.0,80,0.00,,---,0.25,VWS V14.01,2013-10-02 23:21:00,
2013-10-02 16:26:00,55.6,49.5,30.05,SSW,205,1.0,7.0,80,0.00,,---,0.25,VWS V14.01,2013-10-02 23:26:00,
2013-10-02 16:31:00,55.5,48.4,30.05,SW,220,0.0,3.0,77,0.00,,---,0.25,VWS V14.01,2013-10-02 23:31:00,
2013-10-02 16:36:00,55.3,48.6,30.05,SSW,210,0.0,6.0,78,0.00,,---,0.25,VWS V14.01,2013-10-02 23:36:00,
2013-10-02 16:41:00,55.0,48.6,30.05,SE,138,0.0,6.0,79,0.00,,---,0.25,VWS V14.01,2013-10-02 23:41:00,
2013-10-02 16:46:00,54.8,48.8,30.05,SW,215,5.0,6.0,80,0.00,,---,0.25,VWS V14.01,2013-10-02 23:46:00,
2013-10-02 16:50:00,54.5,48.8,30.05,SW,236,0.0,6.0,81,0.00,,---,0.25,VWS V14.01,2013-10-02 23:50:00,
2013-10-02 16:55:00,54.4,48.7,30.06,SW,221,3.0,6.0,81,0.00,,---,0.25,VWS V14.01,2013-10-02 23:55:00,
2013-10-02 17:00:00,54.2,48.5,30.06,SW,227,2.0,6.0,81,0.00,,---,0.25,VWS V14.01,2013-10-03 00:00:00,
2013-10-02 17:05:00,53.9,47.9,30.06,SW,226,4.0,6.0,80,0.00,,---,0.25,VWS V14.01,2013-10-03 00:05:00,
2013-10-02 17:10:00,53.7,48.0,30.06,SW,215,0.0,6.0,81,0.00,,---,0.25,VWS V14.01,2013-10-03 00:10:00,
2013-10-02 17:15:00,53.6,48.2,30.06,SW,214,0.0,6.0,82,0.00,,---,0.25,VWS V14.01,2013-10-03 00:15:00,
2013-10-02 17:20:00,53.6,48.2,30.06,SW,215,1.0,6.0,82,0.00,,---,0.25,VWS V14.01,2013-10-03 00:20:00,
2013-10-02 17:26:00,53.4,47.7,30.06,SW,214,0.0,6.0,81,0.00,,---,0.25,VWS V14.01,2013-10-03 00:26:00,
2013-10-02 17:31:00,53.3,48.3,30.06,SW,214,1.0,1.0,83,0.00,,---,0.25,VWS V14.01,2013-10-03 00:31:00,
2013-10-02 17:36:00,53.2,47.9,30.06,West,260,0.0,3.0,82,0.00,,---,0.25,VWS V14.01,2013-10-03 00:36:00,
2013-10-02 17:41:00,53.0,47.7,30.06,West,260,2.0,3.0,82,0.00,,---,0.25,VWS V14.01,2013-10-03 00:41:00,
2013-10-02 17:46:00,52.9,47.9,30.06,West,260,0.0,3.0,83,0.00,,---,0.25,VWS V14.01,2013-10-03 00:46:00,
2013-10-02 17:51:00,52.8,48.1,30.06,WSW,250,0.0,3.0,84,0.00,,---,0.25,VWS V14.01,2013-10-03 00:51:00,
2013-10-02 17:56:00,52.7,48.0,30.06,WSW,250,0.0,3.0,84,0.00,,---,0.25,VWS V14.01,2013-10-03 00:56:00,
2013-10-02 18:01:00,52.6,47.9,30.07,WSW,250,0.0,1.0,84,0.00,,---,0.25,VWS V14.01,2013-10-03 01:01:00,
2013-10-02 18:06:00,52.5,47.8,30.07,West,259,3.0,3.0,84,0.00,,---,0.25,VWS V14.01,2013-10-03 01:06:00,
2013-10-02 18:11:00,52.2,47.5,30.07,NW,304,0.0,9.0,84,0.00,,---,0.25,VWS V14.01,2013-10-03 01:11:00,
2013-10-02 18:16:00,51.9,47.5,30.07,WSW,257,2.0,9.0,85,0.00,,---,0.25,VWS V14.01,2013-10-03 01:16:00,
2013-10-02 18:21:00,51.4,47.4,30.07,WSW,245,2.0,13.0,86,0.00,,---,0.25,VWS V14.01,2013-10-03 01:21:00,
2013-10-02 18:26:00,51.1,47.1,30.07,West,278,1.0,13.0,86,0.00,,---,0.25,VWS V14.01,2013-10-03 01:26:00,
2013-10-02 18:31:00,50.8,46.8,30.07,West,267,4.0,4.0,86,0.00,,---,0.25,VWS V14.01,2013-10-03 01:31:00,
2013-10-02 18:36:00,50.7,47.0,30.07,NW,312,2.0,5.0,87,0.00,,---,0.25,VWS V14.01,2013-10-03 01:36:00,
2013-10-02 18:41:00,50.6,47.2,30.07,WNW,294,2.0,5.0,88,0.00,,---,0.25,VWS V14.01,2013-10-03 01:41:00,
2013-10-02 18:46:00,50.5,47.4,30.07,WNW,303,1.0,5.0,89,0.00,,---,0.25,VWS V14.01,2013-10-03 01:46:00,
2013-10-02 18:51:00,50.4,47.6,30.08,WNW,292,2.0,5.0,90,0.00,,---,0.25,VWS V14.01,2013-10-03 01:51:00,
2013-10-02 18:56:00,50.3,47.5,30.08,WNW,301,0.0,5.0,90,0.00,,---,0.25,VWS V14.01,2013-10-03 01:56:00,
2013-10-02 19:01:00,50.3,47.5,30.08,NW,310,1.0,2.0,90,0.00,,---,0.25,VWS V14.01,2013-10-03 02:01:00,
2013-10-02 19:06:00,50.1,47.3,30.08,WNW,293,2.0,5.0,90,0.00,,---,0.25,VWS V14.01,2013-10-03 02:06:00,
2013-10-02 19:07:00,50.1,47.3,30.08,NW,304,3.0,5.0,90,0.00,,---,0.25,VWS V14.01,2013-10-03 02:07:00,
2013-10-02 19:12:00,50.0,47.2,30.08,WNW,290,0.0,5.0,90,0.00,,---,0.25,VWS V14.01,2013-10-03 02:12:00,
2013-10-02 19:17:00,49.9,47.4,30.08,WNW,290,0.0,5.0,91,0.00,,---,0.25,VWS V14.01,2013-10-03 02:17:00,
2013-10-02 19:22:00,49.9,47.4,30.09,WNW,290,0.0,5.0,91,0.01,,---,0.26,VWS V14.01,2013-10-03 02:22:00,
2013-10-02 19:27:00,49.9,47.4,30.09,WNW,290,0.0,5.0,91,0.01,,---,0.26,VWS V14.01,2013-10-03 02:27:00,
2013-10-02 19:32:00,49.8,47.3,30.09,WNW,290,0.0,0.0,91,0.01,,---,0.26,VWS V14.01,2013-10-03 02:32:00,
2013-10-02 19:37:00,49.8,47.3,30.09,WNW,290,0.0,0.0,91,0.01,,---,0.26,VWS V14.01,2013-10-03 02:37:00,
2013-10-02 19:42:00,49.9,47.4,30.09,WNW,290,0.0,0.0,91,0.02,,---,0.27,VWS V14.01,2013-10-03 02:42:00,
2013-10-02 19:48:00,49.8,47.6,30.09,WNW,290,0.0,1.0,92,0.02,,---,0.27,VWS V14.01,2013-10-03 02:48:00,
2013-10-02 19:53:00,49.9,47.7,30.09,WNW,290,0.0,1.0,92,0.02,,---,0.27,VWS V14.01,2013-10-03 02:53:00,
2013-10-02 19:58:00,50.2,48.3,30.09,WNW,290,0.0,1.0,93,0.02,,---,0.27,VWS V14.01,2013-10-03 02:58:00,
2013-10-02 20:03:00,50.6,48.9,30.10,WNW,290,0.0,0.0,94,0.02,,---,0.27,VWS V14.01,2013-10-03 03:03:00,
2013-10-02 20:08:00,50.3,48.4,30.10,WNW,290,0.0,1.0,93,0.02,,---,0.27,VWS V14.01,2013-10-03 03:08:00,
2013-10-02 20:13:00,50.3,48.4,30.10,WNW,290,0.0,1.0,93,0.02,,---,0.27,VWS V14.01,2013-10-03 03:13:00,
2013-10-02 20:18:00,50.1,48.2,30.10,NE,45,1.0,4.0,93,0.02,,---,0.27,VWS V14.01,2013-10-03 03:18:00,
2013-10-02 20:23:00,50.0,48.1,30.11,NE,46,0.0,4.0,93,0.02,,---,0.27,VWS V14.01,2013-10-03 03:23:00,
2013-10-02 20:28:00,50.0,48.1,30.11,NE,45,0.0,4.0,93,0.02,,---,0.27,VWS V14.01,2013-10-03 03:28:00,
2013-10-02 20:33:00,50.1,48.2,30.11,NE,45,0.0,2.0,93,0.01,,---,0.27,VWS V14.01,2013-10-03 03:33:00,
2013-10-02 20:38:00,50.1,48.4,30.11,NE,45,0.0,2.0,94,0.01,,---,0.27,VWS V14.01,2013-10-03 03:38:00,
2013-10-02 20:43:00,50.1,48.2,30.11,NE,46,0.0,2.0,93,0.01,,---,0.27,VWS V14.01,2013-10-03 03:43:00,
2013-10-02 20:48:00,49.9,48.0,30.11,NE,45,0.0,2.0,93,0.01,,---,0.27,VWS V14.01,2013-10-03 03:48:00,
2013-10-02 20:53:00,49.9,48.2,30.11,NE,45,0.0,2.0,94,0.01,,---,0.27,VWS V14.01,2013-10-03 03:53:00,
2013-10-02 20:58:00,49.9,48.2,30.12,NE,45,0.0,2.0,94,0.01,,---,0.27,VWS V14.01,2013-10-03 03:58:00,
2013-10-02 21:01:00,49.9,48.2,30.12,NE,45,0.0,0.0,94,0.00,,---,0.27,VWS V14.01,2013-10-03 04:01:00,
2013-10-02 21:02:00,49.9,48.2,30.12,NE,45,0.0,0.0,94,0.00,,---,0.27,VWS V14.01,2013-10-03 04:02:00,
2013-10-02 21:03:00,49.9,48.2,30.12,NE,45,0.0,0.0,94,0.00,,---,0.27,VWS V14.01,2013-10-03 04:03:00,
2013-10-02 21:04:00,49.9,48.2,30.12,NE,45,0.0,0.0,94,0.00,,---,0.27,VWS V14.01,2013-10-03 04:04:00,
2013-10-02 21:09:00,49.9,48.2,30.12,NE,45,0.0,1.0,94,0.00,,---,0.27,VWS V14.01,2013-10-03 04:09:00,
2013-10-02 21:14:00,49.9,48.2,30.12,NE,45,0.0,1.0,94,0.00,,---,0.27,VWS V14.01,2013-10-03 04:14:00,
2013-10-02 21:20:00,49.8,48.2,30.12,NE,45,1.0,2.0,94,0.00,,---,0.27,VWS V14.01,2013-10-03 04:20:00,
2013-10-02 21:25:00,49.8,48.2,30.12,NE,45,0.0,2.0,94,0.00,,---,0.27,VWS V14.01,2013-10-03 04:25:00,
2013-10-02 21:30:00,49.8,48.2,30.12,NE,45,0.0,2.0,94,0.00,,---,0.27,VWS V14.01,2013-10-03 04:30:00,
2013-10-02 21:35:00,49.9,48.2,30.12,NE,45,0.0,1.0,94,0.00,,---,0.27,VWS V14.01,2013-10-03 04:35:00,
2013-10-02 21:40:00,49.9,48.2,30.12,NE,45,0.0,1.0,94,0.00,,---,0.27,VWS V14.01,2013-10-03 04:40:00,
2013-10-02 21:45:00,49.8,48.2,30.13,NE,46,0.0,1.0,94,0.00,,---,0.27,VWS V14.01,2013-10-03 04:45:00,
2013-10-02 21:50:00,49.7,47.8,30.13,NE,46,0.0,1.0,93,0.00,,---,0.27,VWS V14.01,2013-10-03 04:50:00,
2013-10-02 21:55:00,49.8,47.9,30.13,NE,46,0.0,1.0,93,0.00,,---,0.27,VWS V14.01,2013-10-03 04:55:00,
2013-10-02 22:00:00,49.9,48.2,30.13,NE,46,0.0,1.0,94,0.00,,---,0.27,VWS V14.01,2013-10-03 05:00:00,
2013-10-02 22:05:00,50.0,48.3,30.13,NE,46,0.0,0.0,94,0.00,,---,0.27,VWS V14.01,2013-10-03 05:05:00,
2013-10-02 22:10:00,50.1,48.4,30.13,NE,46,0.0,0.0,94,0.00,,---,0.27,VWS V14.01,2013-10-03 05:10:00,
2013-10-02 22:15:00,50.1,48.4,30.14,NE,46,0.0,0.0,94,0.00,,---,0.27,VWS V14.01,2013-10-03 05:15:00,
2013-10-02 22:20:00,50.0,48.1,30.14,NE,46,0.0,0.0,93,0.00,,---,0.27,VWS V14.01,2013-10-03 05:20:00,
2013-10-02 22:25:00,49.9,48.0,30.14,NE,46,0.0,0.0,93,0.00,,---,0.27,VWS V14.01,2013-10-03 05:25:00,
2013-10-02 22:30:00,49.9,48.2,30.14,NE,46,0.0,0.0,94,0.00,,---,0.27,VWS V14.01,2013-10-03 05:30:00,
2013-10-02 22:35:00,49.9,48.0,30.14,NE,46,0.0,0.0,93,0.00,,---,0.27,VWS V14.01,2013-10-03 05:35:00,
2013-10-02 22:40:00,50.1,48.4,30.14,NE,46,0.0,0.0,94,0.00,,---,0.27,VWS V14.01,2013-10-03 05:40:00,
2013-10-02 22:45:00,50.6,49.2,30.15,NE,46,0.0,0.0,95,0.00,,---,0.27,VWS V14.01,2013-10-03 05:45:00,
2013-10-02 22:50:00,50.9,49.5,30.15,NE,46,0.0,1.0,95,0.00,,---,0.27,VWS V14.01,2013-10-03 05:50:00,
2013-10-02 22:56:00,50.6,49.2,30.15,NE,46,0.0,2.0,95,0.00,,---,0.27,VWS V14.01,2013-10-03 05:56:00,
2013-10-02 23:01:00,50.5,48.8,30.15,NE,46,0.0,0.0,94,0.00,,---,0.27,VWS V14.01,2013-10-03 06:01:00,
2013-10-02 23:06:00,50.2,48.5,30.15,NE,46,0.0,2.0,94,0.00,,---,0.27,VWS V14.01,2013-10-03 06:06:00,
2013-10-02 23:11:00,50.0,48.1,30.15,NE,46,0.0,2.0,93,0.00,,---,0.27,VWS V14.01,2013-10-03 06:11:00,
2013-10-02 23:16:00,49.9,48.0,30.15,NE,46,0.0,2.0,93,0.00,,---,0.27,VWS V14.01,2013-10-03 06:16:00,
2013-10-02 23:21:00,49.8,47.9,30.16,NW,318,0.0,2.0,93,0.00,,---,0.27,VWS V14.01,2013-10-03 06:21:00,
2013-10-02 23:26:00,49.7,47.8,30.16,NW,309,1.0,3.0,93,0.00,,---,0.27,VWS V14.01,2013-10-03 06:26:00,
2013-10-02 23:31:00,49.7,47.8,30.16,WNW,286,0.0,1.0,93,0.00,,---,0.27,VWS V14.01,2013-10-03 06:31:00,
2013-10-02 23:36:00,49.8,47.9,30.16,WNW,286,0.0,1.0,93,0.00,,---,0.27,VWS V14.01,2013-10-03 06:36:00,
2013-10-02 23:41:00,49.8,47.9,30.16,WNW,287,0.0,3.0,93,0.00,,---,0.27,VWS V14.01,2013-10-03 06:41:00,
2013-10-02 23:46:00,49.9,48.0,30.16,WNW,287,0.0,3.0,93,0.00,,---,0.27,VWS V14.01,2013-10-03 06:46:00,
2013-10-02 23:51:00,49.9,48.0,30.17,WNW,287,0.0,3.0,93,0.00,,---,0.27,VWS V14.01,2013-10-03 06:51:00,
2013-10-02 23:56:00,49.9,48.0,30.17,WNW,287,0.0,3.0,93,0.00,,---,0.27,VWS V14.01,2013-10-03 06:56:00,